Location: Prostejov
(49.4670°N, 17.1170°E)
Time: 02:21:23
(UTC+01:00)

ISS - Pass Details

Date: 03 October 2020
Orbit: 417 x 420 km, 51.6° (Epoch: 25 October)

Event Time Altitude Azimuth Distance (km) Brightness Sun altitude
Rises 21:08:38 0° 281° (W) 2,369 1.2 -26.7°
Reaches altitude 10° 21:11:41 10° 251° (WSW) 1,500 -0.5 -27.1°
Enters shadow 21:12:12 11° 243° (WSW) 1,420 -0.7 -27.2°
